Vertical_Velocity
-4 -3 1 -0 3 3 7 6 -2 3 5 -4 -2 4 11 4 -15 -0 -4 -2 -3 -1 5 -4 1 2 0 -2 -3 -1 1 -0 -1 -1 0 -0 -0 -1 -0 -2 -0 -1 -2 -2 1 1 -1 -2 -3
-2 -2 -1 -1 2 4 8 4 9 -7 1 2 -2 8 -3 -0 7 -6 29 3 -4 3 -5 4 1 0 -0 -2 -1 0 1 -1 0 -0 1 0 -0 -2 -2 -0 0 0 1 -1 3 -2 2 -1 -1
-1 -2 0 1 1 4 17 -0 -2 -2 -1 1 2 -2 -1 4 -5 1 1 5 1 3 -5 -2 -2 -1 -3 1 1 -1 -2 -0 -0 2 -1 2 -1 -2 -1 1 0 -2 -0 -1 -2 2 -0 0 -1
-0 -2 2 -0 1 1 0 1 -1 0 4 1 0 -1 3 2 1 0 -3 -1 2 0 -0 -2 1 -0 1 0 -1 -2 0 1 4 4 -2 2 1 -2 -1 1 1 1 2 -3 -0 -1 -1 2 1
-1 -1 1 1 2 -1 -2 -3 -0 -1 1 -3 -4 -0 2 3 9 1 -3 2 -5 -6 -3 -1 3 2 -4 -4 -5 -1 1 -1 6 1 1 1 0 -1 1 1 1 0 1 2 -0 1 1 -1 2
-0 -1 2 6 4 0 -0 2 2 1 1 -1 -3 -3 -4 -3 -4 -3 -1 -3 4 2 8 -1 6 3 1 0 1 -2 0 3 1 2 3 1 -0 1 2 -0 -1 1 1 2 -1 1 -1 2 -0
2 -1 0 2 1 5 3 1 -1 0 -1 -1 2 -3 0 2 0 -3 -4 -1 3 14 6 -8 5 4 5 -1 3 -1 0 3 2 5 2 5 2 2 1 1 1 -1 -1 -2 0 -1 1 1 2
-0 -0 1 0 4 1 -1 -4 -2 -1 -3 -4 -2 5 -4 -2 -2 -2 -1 1 3 4 7 50 26 7 5 1 13 4 7 4 -5 4 1 6 1 -1 -2 1 -0 1 1 0 -0 3 -1 1 -1
-2 -4 1 1 -2 -2 -4 -2 -1 -3 -3 1 -1 -0 -1 1 1 -1 5 1 4 0 -2 79 -22 -4 -20 10 -4 18 10 5 3 -3 4 18 2 -0 0 1 -2 -0 0 0 3 2 -1 -1 0
-1 -1 1 -3 -1 -4 4 2 -1 4 1 -3 -2 2 5 -1 -3 -2 2 1 5 -3 -1 -2 -8 -5 3 3 29 10 1 3 -3 18 4 2 3 2 -2 2 1 -1 0 4 0 0 -2 -1 -3
-1 -3 -4 -4 3 1 7 1 -0 2 8 2 -1 1 11 8 -1 0 -1 -3 1 1 -1 -3 -1 6 10 17 -5 -15 4 2 23 -1 1 3 5 2 1 4 -1 2 -1 -0 1 -2 -2 -0 -1
-0 -5 -3 -1 -1 -2 -4 -3 2 -1 1 -2 2 3 -1 -2 0 4 -5 2 -2 -2 -1 -2 -0 6 7 4 15 14 10 11 -1 -4 -0 -1 3 1 7 2 -3 -0 -3 -1 -1 -0 -1 -2 -2
-1 -2 -3 1 1 -4 -4 -1 2 -2 -3 -0 -2 -1 3 1 1 -0 -3 -1 3 1 -1 1 11 4 1 8 3 9 8 2 1 -8 -2 2 2 -1 3 -1 -3 -0 -1 0 2 1 2 1 -1
-1 -1 -2 -2 7 21 -2 -0 -2 -2 -1 -0 -2 -4 2 0 1 1 3 -2 -3 -3 8 1 0 -2 -1 7 1 7 10 2 -9 -5 5 0 0 1 -1 -1 -3 -3 2 3 1 4 0 4 1
-3 1 1 -2 0 1 -2 -2 2 1 1 -1 1 -2 2 2 1 4 4 2 -0 3 1 6 5 -0 2 7 7 4 -1 -12 -2 2 0 3 0 -1 -2 0 3 -1 5 -1 -1 -2 -2 1 -3
-2 -1 6 -1 -2 -2 -4 10 0 1 -0 -2 0 1 1 1 1 -0 -3 3 2 -1 -1 -2 -2 -5 -7 -5 -7 -4 -1 -1 -2 0 0 -0 0 1 -1 5 1 -1 1 -0 0 -3 -4 -1 -2
-5 3 -3 3 0 -2 -5 -1 -1 0 -2 -2 1 1 0 1 3 2 -1 1 5 4 2 -3 -2 2 1 0 3 0 1 1 2 -1 6 1 0 -2 0 2 2 1 1 -1 -2 -1 1 -3 -2
1 -1 -2 1 -0 2 -1 1 1 -0 -4 -1 1 2 1 -1 -3 1 -1 1 -0 1 2 3 1 -3 2 2 -1 3 3 1 3 -1 0 3 -1 3 2 1 2 -2 4 -2 -3 -4 -2 -3 -2
-5 6 -5 -2 -0 3 0 0 2 -1 -4 -4 1 1 1 -1 -2 -1 -2 -3 -3 -4 -4 -3 -4 1 5 1 2 -1 -1 -1 0 1 3 2 4 1 -1 3 -1 0 -3 -2 -3 -4 -1 -0 -3
-6 1 -3 -3 -5 -1 3 2 1 -0 -1 -6 -2 -3 -1 -2 -1 -2 -2 -0 -0 -1 -1 2 2 1 1 -0 0 -1 -1 2 -2 1 -0 -1 2 -0 -1 1 -3 -2 -4 -3 -2 -2 -3 -2 -1
-1 -4 1 3 1 -4 -5 -2 0 -0 0 3 1 -1 -1 1 1 -0 -2 -3 -2 -2 -2 -4 -3 -3 -3 -2 -3 -1 1 -8 4 3 2 0 1 1 1 -1 -2 -2 -0 -2 -1 -2 -4 -4 -0
-3 -0 -4 1 1 16 -3 23 -4 1 -2 -3 -2 1 -1 -1 -1 2 -2 1 -0 -0 -2 -2 -2 0 -1 -0 -1 1 -1 5 -1 3 3 1 1 1 -2 -1 -0 -2 -1 -1 -1 -2 0 -4 -3
-1 -3 0 -1 1 -1 -0 -4 13 -3 -0 5 -4 -3 1 1 -0 -1 -1 1 -1 -2 -0 -0 -1 -1 -0 1 -1 -2 1 -2 -0 4 5 1 -3 -1 -0 -1 -1 -0 -1 -2 -1 0 0 1 -7
1 -4 -0 1 -0 -3 -1 0 3 3 2 2 -1 -2 -4 -1 -1 -1 -2 -3 2 1 4 1 1 1 0 1 1 1 -3 0 -0 -1 -1 -2 -0 -0 -0 -0 -1 -1 -0 -2 -1 -0 0 -3 -0
0 -0 -1 -2 -1 2 -1 1 2 0 -0 1 1 0 -1 -8 -2 -0 1 1 -2 -0 0 -0 1 1 1 0 2 -2 6 1 -1 -0 0 2 0 0 0 -1 1 -0 -1 -2 -1 -2 -5 -1 1
3 -1 -2 6 5 3 0 1 12 -3 -1 3 5 1 2 1 -2 -2 -1 -1 -0 -3 -2 1 1 2 1 2 1 0 1 0 -2 -2 3 3 3 0 1 1 1 0 -2 -1 2 -1 2 -1 -2
1 -4 1 -3 1 0 0 0 0 -3 1 -1 -1 1 3 2 2 3 -2 0 0 -1 0 2 1 0 4 -3 -4 -6 4 6 -1 -3 4 1 1 2 9 -1 -2 3 -1 -2 5 4 0 1 -3
-0 1 -3 -0 0 2 -1 1 10 -5 -2 -0 -1 -1 2 3 2 2 4 4 2 2 -1 -1 1 2 1 1 -1 -1 1 3 3 3 3 -1 -1 0 -1 -0 6 4 0 -3 1 2 3 1 16
1 1 1 -2 -1 -1 -2 2 3 1 -4 -3 -1 1 0 2 3 1 1 2 -1 3 4 2 0 1 0 -0 1 2 -0 -1 0 1 3 0 -0 -1 -1 11 2 1 -3 -2 -1 3 2 9 1
-0 -0 -6 -2 -2 -0 1 7 -5 -0 -1 -4 -4 -3 -1 2 0 0 -4 1 2 2 2 2 1 -0 -0 1 -1 -2 -2 -1 -1 -1 -0 -0 1 1 1 2 -1 -0 1 -2 2 2 9 3 -3
Height
5788 5785 5784 5784 5787 5787 5790 5792 5792 5795 5799 5801 5805 5807 5807 5807 5812 5813 5814 5817 5821 5824 5827 5829 5830 5831 5833 5834 5835 5836 5838 5840 5843 5843 5844 5843 5843 5843 5844 5844 5844 5844 5844 5843 5844 5843 5845 5844 5846
5784 5782 5780 5780 5782 5784 5789 5787 5788 5788 5792 5796 5800 5802 5802 5805 5806 5809 5807 5812 5816 5820 5821 5823 5826 5827 5828 5829 5830 5831 5834 5836 5838 5839 5839 5839 5839 5839 5840 5841 5841 5841 5841 5840 5841 5841 5841 5843 5844
5781 5778 5777 5776 5777 5780 5787 5782 5782 5785 5789 5792 5795 5797 5800 5801 5802 5803 5807 5810 5813 5815 5816 5818 5821 5822 5822 5823 5825 5828 5830 5832 5834 5835 5835 5835 5835 5835 5836 5837 5837 5837 5838 5837 5837 5838 5839 5841 5841
5777 5774 5774 5773 5774 5775 5776 5778 5780 5782 5785 5788 5790 5794 5798 5798 5798 5800 5804 5807 5809 5812 5813 5814 5815 5815 5817 5819 5822 5824 5825 5827 5829 5829 5831 5831 5832 5832 5832 5833 5834 5833 5833 5834 5836 5837 5838 5838 5837
5773 5771 5770 5771 5771 5771 5772 5774 5777 5779 5782 5785 5788 5790 5794 5795 5794 5797 5799 5803 5806 5807 5806 5808 5809 5810 5811 5814 5816 5818 5819 5821 5823 5824 5825 5827 5828 5828 5829 5828 5828 5829 5830 5831 5832 5833 5835 5835 5836
5771 5769 5769 5772 5770 5769 5770 5772 5774 5777 5780 5783 5786 5787 5790 5791 5793 5795 5797 5798 5800 5800 5798 5801 5803 5805 5807 5808 5809 5811 5813 5816 5818 5820 5821 5823 5823 5823 5823 5823 5824 5825 5826 5828 5829 5831 5831 5831 5831
5769 5768 5768 5768 5768 5769 5770 5772 5774 5776 5778 5780 5782 5783 5785 5787 5789 5790 5792 5794 5794 5794 5791 5793 5797 5800 5802 5801 5800 5804 5806 5809 5812 5815 5816 5820 5819 5818 5817 5818 5820 5822 5823 5825 5826 5827 5828 5829 5826
5768 5767 5768 5769 5770 5770 5771 5772 5774 5775 5776 5778 5779 5780 5781 5784 5785 5787 5788 5789 5789 5789 5780 5782 5789 5794 5794 5794 5797 5797 5801 5805 5805 5807 5810 5814 5813 5812 5813 5816 5817 5819 5821 5823 5823 5825 5825 5824 5823
5767 5768 5770 5769 5769 5770 5771 5772 5773 5773 5774 5773 5775 5776 5778 5780 5780 5783 5784 5784 5782 5783 5784 5782 5785 5784 5784 5788 5789 5788 5794 5797 5801 5801 5804 5808 5809 5809 5811 5813 5815 5816 5817 5820 5821 5821 5822 5821 5819
5767 5768 5770 5770 5769 5771 5771 5771 5771 5770 5770 5770 5771 5772 5773 5776 5777 5778 5779 5780 5778 5777 5779 5782 5783 5781 5782 5784 5784 5787 5789 5793 5795 5798 5798 5799 5802 5806 5808 5811 5814 5815 5816 5816 5818 5817 5818 5817 5817
5767 5768 5769 5771 5769 5770 5770 5771 5770 5768 5767 5768 5769 5770 5770 5770 5771 5773 5772 5772 5772 5772 5773 5775 5777 5773 5772 5776 5780 5779 5780 5788 5792 5792 5794 5796 5800 5804 5807 5809 5812 5812 5814 5813 5814 5814 5814 5814 5814
5767 5768 5770 5770 5771 5771 5770 5769 5768 5767 5766 5766 5765 5766 5764 5765 5766 5767 5765 5765 5767 5767 5767 5769 5771 5772 5769 5776 5778 5778 5782 5786 5787 5786 5789 5793 5798 5803 5807 5808 5811 5812 5811 5812 5811 5813 5813 5812 5811
5767 5769 5770 5769 5769 5769 5768 5768 5768 5766 5765 5765 5763 5762 5762 5762 5762 5761 5761 5761 5762 5761 5762 5764 5765 5768 5769 5770 5768 5770 5776 5782 5782 5783 5788 5793 5799 5803 5804 5806 5807 5807 5809 5809 5809 5811 5811 5810 5807
5767 5768 5768 5767 5768 5766 5768 5768 5767 5766 5764 5763 5761 5761 5760 5758 5758 5758 5758 5756 5756 5755 5757 5759 5761 5762 5763 5766 5767 5769 5773 5778 5778 5783 5790 5794 5798 5801 5804 5803 5806 5803 5805 5806 5807 5807 5806 5805 5803
5767 5768 5768 5767 5767 5768 5768 5768 5767 5765 5764 5763 5762 5760 5759 5757 5758 5757 5756 5755 5756 5755 5755 5755 5757 5759 5760 5762 5765 5769 5772 5776 5780 5785 5790 5794 5797 5799 5802 5801 5802 5803 5803 5805 5805 5805 5802 5800 5797
5766 5767 5771 5769 5767 5767 5769 5769 5766 5765 5763 5763 5763 5762 5762 5759 5759 5760 5757 5758 5757 5757 5757 5756 5757 5759 5762 5766 5769 5772 5775 5778 5782 5786 5790 5792 5794 5797 5798 5798 5800 5800 5801 5802 5801 5800 5797 5794 5791
5765 5769 5768 5768 5767 5767 5768 5767 5766 5764 5763 5763 5763 5763 5763 5763 5762 5763 5763 5763 5763 5761 5760 5761 5762 5764 5766 5769 5771 5775 5776 5780 5782 5786 5788 5791 5791 5793 5795 5795 5798 5797 5798 5797 5795 5792 5790 5787 5784
5765 5765 5765 5767 5767 5768 5768 5767 5766 5765 5764 5764 5765 5765 5765 5765 5764 5764 5766 5766 5766 5765 5764 5765 5765 5768 5769 5771 5774 5775 5777 5781 5782 5784 5786 5787 5790 5790 5792 5793 5794 5794 5792 5791 5789 5786 5784 5781 5777
5760 5763 5765 5764 5765 5767 5768 5767 5766 5765 5764 5764 5764 5765 5766 5766 5766 5766 5766 5768 5768 5767 5767 5767 5768 5769 5771 5772 5773 5776 5776 5778 5779 5781 5784 5785 5787 5789 5789 5790 5789 5787 5788 5785 5783 5781 5777 5773 5768
5758 5759 5761 5761 5764 5764 5766 5767 5766 5765 5765 5765 5764 5765 5766 5766 5766 5767 5768 5769 5769 5769 5768 5768 5769 5769 5770 5771 5773 5774 5775 5775 5777 5780 5780 5783 5784 5786 5786 5784 5783 5783 5781 5779 5776 5773 5769 5765 5761
5756 5757 5758 5761 5760 5762 5763 5765 5765 5765 5765 5766 5766 5765 5765 5766 5766 5767 5767 5768 5769 5769 5768 5769 5769 5770 5770 5772 5772 5773 5774 5775 5774 5777 5779 5781 5782 5781 5781 5779 5778 5776 5774 5771 5768 5765 5760 5756 5752
5754 5754 5755 5757 5759 5763 5762 5767 5764 5764 5764 5764 5765 5765 5764 5764 5765 5765 5767 5767 5767 5767 5768 5768 5769 5769 5769 5770 5770 5771 5772 5773 5775 5776 5777 5777 5778 5777 5775 5773 5770 5768 5765 5763 5759 5754 5750 5746 5742
5753 5752 5753 5755 5756 5758 5760 5761 5762 5761 5762 5763 5763 5763 5764 5764 5764 5764 5764 5764 5765 5766 5766 5767 5767 5768 5768 5769 5768 5769 5770 5771 5771 5772 5773 5774 5772 5770 5768 5765 5761 5759 5756 5754 5749 5745 5741 5737 5731
5750 5751 5751 5754 5755 5756 5758 5760 5763 5762 5761 5762 5761 5761 5761 5761 5763 5763 5762 5761 5763 5763 5764 5765 5766 5767 5766 5766 5766 5766 5766 5767 5767 5767 5767 5766 5765 5762 5759 5755 5752 5749 5746 5744 5740 5736 5732 5726 5720
5748 5748 5750 5752 5753 5755 5755 5757 5759 5758 5758 5759 5759 5760 5759 5759 5760 5760 5760 5760 5760 5761 5762 5762 5762 5762 5762 5761 5762 5762 5761 5761 5762 5762 5761 5759 5756 5754 5750 5747 5744 5741 5738 5734 5730 5725 5720 5715 5708
5744 5746 5748 5750 5751 5753 5752 5753 5756 5754 5755 5757 5757 5756 5757 5756 5756 5756 5757 5757 5757 5757 5758 5759 5759 5759 5758 5758 5758 5757 5756 5756 5757 5756 5754 5752 5749 5745 5742 5738 5736 5733 5729 5724 5719 5714 5708 5702 5694
5741 5742 5744 5744 5746 5748 5749 5750 5751 5750 5751 5751 5752 5752 5753 5753 5753 5753 5752 5753 5753 5753 5754 5754 5754 5754 5754 5753 5754 5753 5751 5751 5750 5748 5746 5744 5740 5736 5733 5731 5727 5724 5720 5715 5708 5704 5698 5691 5683
5736 5738 5740 5740 5742 5743 5744 5745 5748 5745 5745 5746 5747 5747 5748 5749 5750 5750 5749 5749 5749 5749 5749 5749 5750 5750 5750 5750 5750 5750 5748 5746 5744 5742 5738 5735 5731 5728 5725 5723 5720 5715 5710 5704 5699 5692 5684 5677 5670
5731 5732 5734 5736 5737 5738 5739 5742 5742 5741 5740 5739 5741 5742 5743 5744 5745 5745 5745 5745 5745 5745 5746 5746 5746 5746 5746 5745 5745 5743 5741 5739 5736 5734 5730 5726 5723 5719 5716 5714 5709 5704 5699 5693 5686 5682 5673 5664 5655
5723 5726 5728 5729 5732 5733 5733 5736 5737 5737 5735 5733 5734 5736 5738 5739 5739 5739 5740 5740 5740 5741 5741 5741 5741 5741 5740 5739 5738 5736 5733 5730 5727 5725 5721 5717 5713 5710 5707 5702 5698 5693 5688 5680 5673 5668 5661 5652 5643